Meteopurmerend
purmerend
Purmerend - Baaienwijk



My webcam  My webcam


Onweer radar Meer informatie blitzortung!


Regen radar Meer informatie rain snow radar


Bezoek onze andere website:

CandyAppleRed WebdesignWebdesign Purmerend Candy Apple Red

MeteopurmerendBlog

Template documentation
and downloads



We konden geen weer-waarchuwingen ophalen. Ga rechtstreeks naar de Meteoalarm site : www.meteoalarm.eu en controleer daar .

15 daagse weersverwachting Dún Laoghaire (IE)

  • Overzicht
  • Per uur
  • 15 dagen
  • Extra
  • Vergelijk
  • Kaarten
  • Dagkaart
  • Meer »
  • Info
  • Statistieken
  • Directe link
    Temp 6h Neerslag Wind  
 05:00     21:56    Daglengte: 16:56 Vandaag
07:00
13°
1.3 mm
8
13:00
16°
 
9
19:00
16°
5.9 mm
7
 05:01     21:56    Daglengte: 16:55 Morgen
01:00
13°
3.6 mm
5
07:00
12°
6.1 mm
7
13:00
15°
 
4
19:00
15°
 
6
 05:01     21:56    Daglengte: 16:55 Dinsdag 28 Jun
01:00
14°
12.8 mm
9
07:00
14°
16.2 mm
11
13:00
17°
19.4 mm
8
19:00
17°
 
6
Locatie info
Region: Leinster
Latitude: 53.2940°N
Longitude: -6.1359°E
16 masl
Temp/Neerslag /Baro Onweer/Dauwpunt
    Temp Baro 1h Neerslag Dauwpunt Wind UV Bewolking  
 05:00     21:56    Daglengte: 16:56 Vandaag
03:00
13°
996.5 hPa
48%
9.6°
12
Windvlaag: 17.6 m/s
86% warningclass
04:00
13°
995.9 hPa 1.3 mm
82%
10.4°
12
Windvlaag: 15.7 m/s
86%
05:00
13°
995.9 hPa
82%
11.6°
9
Windvlaag: 12.7 m/s
86%
06:00
14°
996.7 hPa
82%
10.3°
8
Windvlaag: 12.9 m/s
86%
07:00
13°
997.4 hPa
82%
10.2°
8
Windvlaag: 12.5 m/s
86%
08:00
13°
997.9 hPa
82%
10.7°
8
Windvlaag: 12.1 m/s
86%
09:00
14°
998.4 hPa
76%
10.7°
8
Windvlaag: 11.9 m/s
86%
10:00
15°
998.8 hPa
44%
10.4°
8
Windvlaag: 11.8 m/s
48%
11:00
15°
999.2 hPa
36%
10.9°
9
Windvlaag: 12.5 m/s
48%
12:00
16°
999.6 hPa
77%
11.6°
9
Windvlaag: 12.6 m/s
38%
13:00
16°
1000.1 hPa
82%
11.0°
9
Windvlaag: 12.4 m/s
8%
14:00
17°
1000.5 hPa 2.2 mm
82%
11.1°
9
Windvlaag: 13.5 m/s
43% warningclass
15:00
17°
1001.1 hPa
82%
10.1°
9
Windvlaag: 12.5 m/s
42% warningclass
16:00
17°
1001.6 hPa 1.9 mm
82%
9.8°
8
Windvlaag: 12.1 m/s
45% warningclass
17:00
17°
1002.2 hPa
82%
10.3°
7
Windvlaag: 10.9 m/s
14%
18:00
17°
1002.8 hPa
82%
10.9°
7
Windvlaag: 8.6 m/s
50%
19:00
16°
1003.3 hPa 1.8 mm
82%
11.2°
7
Windvlaag: 7.7 m/s
31%
20:00
16°
1004.1 hPa
73%
10.6°
6
Windvlaag: 6.9 m/s
19%
21:00
15°
1004.8 hPa
61%
9.9°
5
Windvlaag: 5.1 m/s
30%
22:00
15°
1005.8 hPa
64%
9.8°
5
Windvlaag: 4.3 m/s
54%
23:00
14°
1006.3 hPa
26%
9.4°
6
Windvlaag: 3.1 m/s
68%
 05:01     21:56    Daglengte: 16:55 Morgen
00:00
14°
1006.7 hPa 1.8 mm
78%
9.6°
6
Windvlaag: 3.1 m/s
66%
01:00
13°
1007.0 hPa 1.8 mm
77%
9.3°
5
Windvlaag: 3 m/s
34%
02:00
13°
1007.5 hPa
80%
9.2°
5
Windvlaag: 2.8 m/s
66%
03:00
13°
1007.7 hPa 2.0 mm
81%
8.9°
5
Windvlaag: 1.6 m/s
69%
04:00
12°
1008.2 hPa 2.2 mm
82%
8.5°
6
Windvlaag: 0.6 m/s
75%
05:00
12°
1008.6 hPa 1.9 mm
82%
8.4°
7
Windvlaag: 0.3 m/s
62%
06:00
12°
1009.1 hPa
82%
7.6°
7
Windvlaag: 0.3 m/s
51%
07:00
12°
1009.7 hPa
80%
7.4°
7
Windvlaag: 0.7 m/s
52%
08:00
12°
1010.3 hPa
69%
7.1°
7
Windvlaag: 0.5 m/s
15%
09:00
12°
1010.8 hPa
14%
6.5°
7
Windvlaag: 0 m/s
15%
10:00
13°
1011.4 hPa
14%
5.5°
7
Windvlaag: -0 m/s
11%
11:00
14°
1011.7 hPa
14%
4.4°
6
Windvlaag: 0.7 m/s
6%
12:00
14°
1012.0 hPa
18%
4.1°
5
Windvlaag: 1.4 m/s
10%
13:00
15°
1012.1 hPa
16%
4.6°
4
Windvlaag: 1.9 m/s
40%
14:00
15°
1012.1 hPa
16%
4.4°
4
Windvlaag: 3.9 m/s
67%
15:00
15°
1012.2 hPa
15%
5.2°
5
Windvlaag: 3.3 m/s
48%
16:00
16°
1012.0 hPa
14%
5.2°
5
Windvlaag: 5.1 m/s
81%
17:00
16°
1012.0 hPa
14%
6.3°
5
Windvlaag: 6.9 m/s
50%
18:00
16°
1012.1 hPa
22%
6.7°
5
Windvlaag: 7.3 m/s
71%
19:00
15°
1012.3 hPa
30%
6.3°
6
Windvlaag: 8.7 m/s
63%
20:00
15°
1012.4 hPa
16%
6.5°
5
Windvlaag: 9.6 m/s
78%
21:00
14°
1012.2 hPa
24%
6.8°
6
Windvlaag: 11.2 m/s
84%
22:00
14°
1011.1 hPa 3.7 mm
88%
8.2°
7
Windvlaag: 13.6 m/s
96%
23:00
14°
1010.7 hPa 3.3 mm
87%
9.3°
8
Windvlaag: 14 m/s
100%
 05:01     21:56    Daglengte: 16:55 Dinsdag 28 Jun
00:00
14°
1010.0 hPa 2.9 mm
86%
9.7°
9
Windvlaag: 14.3 m/s
100%
01:00
14°
1009.5 hPa 2.9 mm
100%
10.2°
9
Windvlaag: 14.3 m/s
100%
02:00
14°
1008.8 hPa 3.0 mm
100%
10.6°
9
Windvlaag: 14.6 m/s
100%
03:00
14°
1008.1 hPa 3.0 mm
100%
10.7°
10
Windvlaag: 14.5 m/s
100%
04:00
15°
1007.4 hPa 3.0 mm
100%
11.3°
11
Windvlaag: 14 m/s
100%
05:00
14°
1006.7 hPa 1.9 mm
100%
11.6°
11
Windvlaag: 14.3 m/s
100%
06:00
14°
1006.2 hPa 2.0 mm
100%
12.0°
11
Windvlaag: 14.5 m/s
99%
07:00
14°
1006.7 hPa 3.4 mm
100%
12.1°
11
Windvlaag: 15.1 m/s
100%
08:00
15°
1006.6 hPa 3.5 mm
100%
11.9°
11
Windvlaag: 15.7 m/s
97%
09:00
15°
1006.2 hPa 3.4 mm
100%
12.0°
11
Windvlaag: 17.1 m/s
100% warningclass
10:00
15°
1006.1 hPa 3.9 mm
100%
12.3°
11
Windvlaag: 18.4 m/s
100% warningclass
11:00
15°
1005.7 hPa 5.0 mm
100%
12.2°
11
Windvlaag: 18.8 m/s
100% warningclass
12:00
16°
1005.5 hPa 3.6 mm
100%
12.4°
9
Windvlaag: 14.7 m/s
86%
13:00
17°
1005.2 hPa
90%
11.3°
8
Windvlaag: 13.1 m/s
19%
14:00
18°
1005.2 hPa
30%
10.2°
9
Windvlaag: 14.3 m/s
12%
15:00
18°
1005.2 hPa
29%
7.6°
9
Windvlaag: 14.2 m/s
16%
16:00
18°
1005.2 hPa
29%
6.8°
9
Windvlaag: 12.8 m/s
19%
17:00
18°
1005.1 hPa
26%
7.7°
8
Windvlaag: 11.4 m/s
97%
18:00
18°
1005.2 hPa
26%
9.5°
7
Windvlaag: 11.7 m/s
79%
19:00
17°
1005.4 hPa
27%
10.4°
6
Windvlaag: 12.6 m/s
64%
20:00
17°
1005.7 hPa
25%
10.4°
6
Windvlaag: 10.9 m/s
19%
21:00
16°
1005.9 hPa
21%
10.0°
6
Windvlaag: 11.1 m/s
18%
22:00
15°
1006.5 hPa
21%
10.3°
5
Windvlaag: 12.2 m/s
20%
23:00
15°
1006.7 hPa
21%
10.7°
5
Windvlaag: 12 m/s
22%
 05:02     21:55    Daglengte: 16:53 Woensdag 29 Jun
00:00
15°
1006.8 hPa
22%
10.6°
4
Windvlaag: 11 m/s
23%
01:00
14°
1006.8 hPa
22%
10.9°
4
Windvlaag: 9.6 m/s
20%
Temp/Neerslag /Baro Onweer/Dauwpunt
    Temp Baro Neerslag Dauwpunt Wind Bewolking  
 05:00     21:56    Daglengte: 16:56 Vandaag
04:00
13°
995.9 hPa 1.3 mm 10.4°
12
86%
07:00
13°
997.4 hPa   10.2°
8
86%
10:00
15°
998.8 hPa   10.4°
8
48%
13:00
16°
1000.1 hPa   11.0°
9
8%
16:00
17°
1001.6 hPa 4.1 mm 9.8°
8
45% warningclass
19:00
16°
1003.3 hPa 1.8 mm 11.2°
7
31%
22:00
15°
1005.8 hPa   9.8°
5
54%
 05:01     21:56    Daglengte: 16:55 Morgen
01:00
13°
1007.0 hPa 3.6 mm 9.3°
5
34%
04:00
12°
1008.2 hPa 4.2 mm 8.5°
6
75%
07:00
12°
1009.7 hPa 1.9 mm 7.4°
7
52%
10:00
13°
1011.4 hPa   5.5°
7
11%
13:00
15°
1012.1 hPa   4.6°
4
40%
16:00
16°
1012.0 hPa   5.2°
5
81%
19:00
15°
1012.3 hPa   6.3°
6
63%
22:00
14°
1011.1 hPa 3.7 mm 8.2°
7
96%
 05:01     21:56    Daglengte: 16:55 Dinsdag 28 Jun
01:00
14°
1009.5 hPa 9.2 mm 10.2°
9
100%
04:00
15°
1007.4 hPa 9.0 mm 11.3°
11
100%
07:00
14°
1006.7 hPa 7.3 mm 12.1°
11
100%
10:00
15°
1006.1 hPa 10.8 mm 12.3°
11
100% warningclass
13:00
17°
1005.2 hPa 8.6 mm 11.3°
8
19%
16:00
18°
1005.2 hPa   6.8°
9
19%
19:00
17°
1005.4 hPa   10.4°
6
64%
22:00
15°
1006.5 hPa   10.3°
5
20%
 05:02     21:55    Daglengte: 16:53 Woensdag 29 Jun
01:00
14°
1006.8 hPa   10.9°
4
20%
04:00
13°
1004.7 hPa 23.3 mm 10.8°
3
1%
07:00
13°
1006.2 hPa 23.3 mm 10.3°
2
1%
10:00
15°
1007.2 hPa 23.3 mm 8.0°
1
1%
13:00
16°
1007.2 hPa 23.5 mm 6.9°
3
1%
16:00
15°
1006.9 hPa 24.2 mm 11.3°
5
1%
19:00
14°
1007.1 hPa 26.5 mm 12.0°
4
1%
22:00
13°
1008.1 hPa 28.1 mm 11.3°
2
1%
 05:03     21:55    Daglengte: 16:52 Donderdag 30 Jun
01:00
12°
1008.6 hPa 28.2 mm 10.9°
3
1%
04:00
12°
1009.0 hPa 28.2 mm 11.2°
3
1%
07:00
12°
1010.7 hPa 28.2 mm 10.6°
3
1%
10:00
14°
1011.0 hPa 28.3 mm 8.5°
2
0%
13:00
15°
1011.3 hPa 28.6 mm 9.3°
3
1%
16:00
15°
1011.3 hPa 29.3 mm 11.0°
3
1%
19:00
16°
1011.1 hPa 29.6 mm 8.2°
3
1%
22:00
13°
1012.1 hPa 29.8 mm 12.1°
2
0%
 05:03     21:55    Daglengte: 16:52 Vrijdag 01 Jul
01:00
12°
1012.2 hPa 29.8 mm 11.3°
4
0%
04:00
11°
1012.4 hPa 29.8 mm 10.5°
5
1%
07:00
11°
1012.6 hPa 29.8 mm 10.5°
4
1%
10:00
14°
1012.4 hPa 29.8 mm 9.7°
5
1%
13:00
16°
1011.5 hPa 30.0 mm 9.9°
3
1%
16:00
14°
1011.6 hPa 30.4 mm 11.1°
3
1%
19:00
15°
1010.6 hPa 31.0 mm 11.3°
5
1%
22:00
14°
1010.7 hPa 31.0 mm 12.0°
4
0%
 05:04     21:54    Daglengte: 16:50 Zaterdag 02 Jul
01:00
12°
1011.0 hPa 31.0 mm 10.1°
4
0%
04:00
13°
1010.9 hPa 31.0 mm 8.7°
5
1%
07:00
13°
1011.3 hPa 31.0 mm 9.3°
5
1%
10:00
14°
1012.3 hPa 31.0 mm 8.6°
5
1%
13:00
16°
1013.2 hPa 31.1 mm 8.6°
4
1%
16:00
16°
1013.5 hPa 31.5 mm 10.3°
3
1%
19:00
15°
1014.5 hPa 33.6 mm 13.6°
5
1%
22:00
13°
1017.2 hPa 34.4 mm 12.1°
5
1%
 05:05     21:54    Daglengte: 16:49 Zondag 03 Jul
01:00
11°
1018.8 hPa 68.8 mm 10.4°
5
1%
07:00
11°
1020.7 hPa 68.9 mm 9.6°
6
1%
13:00
16°
1022.2 hPa 68.9 mm 8.3°
6
1%
19:00
16°
1023.6 hPa 69.0 mm 11.8°
6
1%
 05:06     21:53    Daglengte: 16:47 Maandag 04 Jul
01:00
11°
1026.6 hPa 69.2 mm 10.8°
5
1%
07:00
13°
1027.2 hPa 69.2 mm 11.9°
5
1%
13:00
18°
1027.7 hPa 69.3 mm 12.4°
4
1%
19:00
18°
1027.4 hPa 69.5 mm 13.5°
4
1%
 05:07     21:53    Daglengte: 16:46 Dinsdag 05 Jul
01:00
13°
1028.9 hPa 69.6 mm 12.0°
4
1%
07:00
13°
1028.1 hPa 69.6 mm 11.1°
4
1%
13:00
18°
1027.7 hPa 69.8 mm 11.5°
2
1%
19:00
19°
1026.1 hPa 69.9 mm 13.8°
3
1%
 05:08     21:52    Daglengte: 16:44 Woensdag 06 Jul
01:00
14°
1020.1 hPa 0.4 mm 12.4°
3
63%
07:00
13°
1019.3 hPa 0.4 mm 12.0°
3
63%
13:00
16°
1019.4 hPa 0.7 mm 12.2°
2
70%
19:00
17°
1018.9 hPa 0.4 mm 12.8°
3
69%
 05:09     21:52    Daglengte: 16:43 Donderdag 07 Jul
01:00
14°
1019.3 hPa 0.5 mm 12.1°
3
64%
07:00
14°
1019.1 hPa 0.2 mm 11.9°
3
72%
13:00
16°
1019.6 hPa 0.2 mm 12.1°
2
71%
19:00
17°
1018.9 hPa 0.5 mm 13.1°
2
68%
 05:10     21:51    Daglengte: 16:41 Vrijdag 08 Jul
01:00
14°
1019.2 hPa 0.4 mm 12.0°
3
59%
07:00
13°
1018.5 hPa 0.3 mm 11.7°
3
67%
13:00
16°
1018.4 hPa 0.4 mm 12.2°
3
74%
19:00
16°
1017.8 hPa 0.9 mm 12.9°
3
73%
 05:11     21:50    Daglengte: 16:39 Zaterdag 09 Jul
01:00
13°
1018.2 hPa 0.6 mm 11.7°
3
64%
07:00
13°
1017.1 hPa 0.5 mm 11.3°
3
65%
13:00
16°
1016.7 hPa 0.8 mm 12.1°
3
66%
19:00
16°
1016.1 hPa 1.4 mm 12.5°
3
64%
 05:12     21:49    Daglengte: 16:37 Zondag 10 Jul
01:00
13°
1017.0 hPa 0.6 mm 11.6°
3
59%
07:00
13°
1016.8 hPa 0.1 mm 11.1°
3
55%
13:00
16°
1017.4 hPa 0.4 mm 11.7°
3
61%
19:00
16°
1017.4 hPa 0.5 mm 12.3°
3
71%
 05:13     21:48    Daglengte: 16:35 Maandag 11 Jul
01:00
13°
1017.9 hPa 0.4 mm 11.7°
4
60%
  CAPE Lifted Index Hail Supercell Tornado SRH 3km CL BTM PRES CL TOP PRES Swiss DWD icon SMHI TS
 05:00     21:56    Daglengte: 16:56 Vandaag
03:00 4 J/kg 3.0 K 0 % 0 % 0 % 0 m²/s² 0 0 3.15 61
04:00 21 J/kg 2.2 K 0 % 0 % 0 % 0 m²/s² 0 0 2.35 61
05:00 44 J/kg 2.4 K 0 % 0 % 0 % 0 m²/s² 0 0 2.64 61
06:00 4 J/kg 2.0 K 0 % 0 % 0 % 0 m²/s² 0 0 2.24 61
07:00 26 J/kg 1.5 K 0 % 0 % 0 % 0 m²/s² 0 0 2.16 61
08:00 143 J/kg 0.6 K 0 % 0 % 0 % 0 m²/s² 0 0 1.98 61
09:00 192 J/kg -0.3 K 0 % 0 % 0 % 0 m²/s² 0 0 0.06 3
10:00 252 J/kg -0.9 K 0 % 0 % 0 % 0 m²/s² 0 0 0.03 3
11:00 305 J/kg -1.4 K 0 % 0 % 0 % 0 m²/s² 0 0 0.19 3
12:00 454 J/kg -2.2 K 0 % 0 % 0 % 0 m²/s² 0 0 -1.12 3
13:00 547 J/kg -2.8 K 0 % 0 % 0 % 0 m²/s² 0 0 -1.66 3
14:00 608 J/kg -3.0 K 0 % 0 % 0 % 0 m²/s² 0 0 -1.62 95
15:00 541 J/kg -2.3 K 0 % 0 % 0 % 0 m²/s² 0 0 -0.74 95
16:00 475 J/kg -2.0 K 0 % 0 % 0 % 0 m²/s² 0 0 -0.38 95
17:00 462 J/kg -2.2 K 0 % 0 % 0 % 0 m²/s² 0 0 -0.85 80
18:00 391 J/kg -1.7 K 0 % 0 % 0 % 0 m²/s² 0 0 -0.29 80
19:00 319 J/kg -1.0 K 0 % 0 % 0 % 0 m²/s² 0 0 0.23 80
20:00 186 J/kg -0.2 K 0 % 0 % 0 % 0 m²/s² 0 0 1 2
21:00 120 J/kg 0.4 K 0 % 0 % 0 % 0 m²/s² 0 0 1.21 2
22:00 122 J/kg 0.4 K 0 % 0 % 0 % 0 m²/s² 0 0 0.64 3
23:00 21 J/kg 1.2 K 0 % 0 % 0 % 0 m²/s² 0 0 1.44 3
 05:01     21:56    Daglengte: 16:55 Morgen
00:00 5 J/kg 2.1 K 0 % 0 % 0 % 0 m²/s² 0 0 2.37 3
01:00 0 J/kg 2.9 K 0 % 0 % 0 % 0 m²/s² 0 0 3.14 61
02:00 0 J/kg 3.7 K 0 % 0 % 0 % 0 m²/s² 0 0 4.15 61
03:00 10 J/kg 4.2 K 0 % 0 % 0 % 0 m²/s² 0 0 5.28 61
04:00 0 J/kg 4.5 K 0 % 0 % 0 % 0 m²/s² 0 0 9.39 61
05:00 0 J/kg 5.2 K 0 % 0 % 0 % 0 m²/s² 0 0 12.4 61
06:00 0 J/kg 5.3 K 0 % 0 % 0 % 0 m²/s² 0 0 12.77 61
07:00 8 J/kg 5.7 K 0 % 0 % 0 % 0 m²/s² 0 0 12.42 3
08:00 25 J/kg 6.1 K 0 % 0 % 0 % 0 m²/s² 0 0 12.79 2
09:00 41 J/kg 7.4 K 0 % 0 % 0 % 0 m²/s² 0 0 14.57 2
10:00 28 J/kg 8.8 K 0 % 0 % 0 % 0 m²/s² 0 0 15.28 2
11:00 19 J/kg 10.0 K 0 % 0 % 0 % 0 m²/s² 0 0 16.12 1
12:00 34 J/kg 10.2 K 0 % 0 % 0 % 0 m²/s² 0 0 16.35 1
13:00 48 J/kg 10.1 K 0 % 0 % 0 % 0 m²/s² 0 0 16.67 1
14:00 61 J/kg 10.3 K 0 % 0 % 0 % 0 m²/s² 0 0 16.9 3
15:00 50 J/kg 10.1 K 0 % 0 % 0 % 0 m²/s² 0 0 16.76 3
16:00 41 J/kg 9.7 K 0 % 0 % 0 % 0 m²/s² 0 0 15.31 3
17:00 47 J/kg 8.4 K 0 % 0 % 0 % 0 m²/s² 0 0 9.42 3
18:00 36 J/kg 7.8 K 0 % 0 % 0 % 0 m²/s² 0 0 8.13 3
19:00 30 J/kg 7.7 K 0 % 0 % 0 % 0 m²/s² 0 0 7.88 3
20:00 4 J/kg 7.6 K 0 % 0 % 0 % 0 m²/s² 0 0 7.72 3
21:00 0 J/kg 7.1 K 0 % 0 % 0 % 0 m²/s² 0 0 7.19 3
22:00 0 J/kg 5.8 K 0 % 0 % 0 % 0 m²/s² 0 0 6.01 3
23:00 0 J/kg 5.5 K 0 % 0 % 0 % 0 m²/s² 0 0 6.52 61
 05:01     21:56    Daglengte: 16:55 Dinsdag 28 Jun
00:00 0 J/kg 4.9 K 0 % 0 % 0 % 0 m²/s² 0 0 5.38 3
01:00 0 J/kg 4.3 K 0 % 0 % 0 % 0 m²/s² 0 0 4.39 61
02:00 0 J/kg 3.9 K 0 % 0 % 0 % 0 m²/s² 0 0 3.93 61
03:00 0 J/kg 3.8 K 0 % 0 % 0 % 0 m²/s² 0 0 3.8 3
04:00 0 J/kg 3.5 K 0 % 0 % 0 % 0 m²/s² 0 0 3.53 3
05:00 0 J/kg 3.5 K 0 % 0 % 0 % 0 m²/s² 0 0 3.5 61
06:00 0 J/kg 2.9 K 0 % 0 % 0 % 0 m²/s² 0 0 2.93 61
07:00 0 J/kg 2.1 K 0 % 0 % 0 % 0 m²/s² 0 0 2.1 61
08:00 0 J/kg 1.7 K 0 % 0 % 0 % 0 m²/s² 0 0 2.57 61
09:00 39 J/kg 0.8 K 0 % 0 % 0 % 0 m²/s² 0 0 1.25 61
10:00 35 J/kg 0.5 K 0 % 0 % 0 % 0 m²/s² 0 0 2.15 61
11:00 95 J/kg 0.0 K 0 % 0 % 0 % 0 m²/s² 0 0 1.95 61
12:00 262 J/kg -0.3 K 0 % 0 % 0 % 0 m²/s² 0 0 4.41 61
13:00 334 J/kg -0.5 K 0 % 0 % 0 % 0 m²/s² 0 0 4.33 2
14:00 163 J/kg 0.8 K 0 % 0 % 0 % 0 m²/s² 0 0 4.37 1
15:00 69 J/kg 2.9 K 0 % 0 % 0 % 0 m²/s² 0 0 4.37 1
16:00 62 J/kg 3.7 K 0 % 0 % 0 % 0 m²/s² 0 0 4.87 1
17:00 72 J/kg 3.3 K 0 % 0 % 0 % 0 m²/s² 0 0 4.89 3
18:00 91 J/kg 2.3 K 0 % 0 % 0 % 0 m²/s² 0 0 4.43 3
19:00 83 J/kg 1.9 K 0 % 0 % 0 % 0 m²/s² 0 0 3.1 2
20:00 143 J/kg 1.1 K 0 % 0 % 0 % 0 m²/s² 0 0 2.09 2
21:00 133 J/kg 1.2 K 0 % 0 % 0 % 0 m²/s² 0 0 1.89 2
22:00 155 J/kg 1.3 K 0 % 0 % 0 % 0 m²/s² 0 0 1.54 1
23:00 137 J/kg 1.1 K 0 % 0 % 0 % 0 m²/s² 0 0 1.34 2
 05:02     21:55    Daglengte: 16:53 Woensdag 29 Jun
00:00 135 J/kg 1.0 K 0 % 0 % 0 % 0 m²/s² 0 0 1.24 1
01:00 115 J/kg 0.7 K 0 % 0 % 0 % 0 m²/s² 0 0 1.06 1
Temp Baro Wind Neerslag
  EWN Forecast EWN WRFDA DWD ICON FMI HIRLAM MET Norway GFS
 05:00     21:56    Daglengte: 16:56 Vandaag
04:00 13.3° 995.9 hPa 11.6 m/s 1.3 mm 12.0° 993.8 hPa 9.7 m/s 7.0 mm 13.1° 996.2 hPa 11.8 m/s 0.2 mm 13.6° 996.2 hPa 13.7 m/s 0.0 mm 12.2° 995.4 hPa 9.1 m/s
07:00 13.4° 997.4 hPa 8.1 m/s 0.0 mm 12.8° 994.8 hPa 4.7 m/s 18.3 mm 13.3° 997.7 hPa 7.9 m/s 1.3 mm 13.6° 997.1 hPa 8.5 m/s 0.0 mm 11.9° 997.3 hPa 6.8 m/s
10:00 14.5° 998.8 hPa 8.3 m/s 0.0 mm 16.3° 996.1 hPa 6.7 m/s 19.5 mm 14.7° 999.4 hPa 7.5 m/s 0.2 mm 14.4° 998.9 hPa 8.4 m/s 0.0 mm 13.7° 998.6 hPa 8.3 m/s
13:00 16.1° 1000.1 hPa 9.0 m/s 0.0 mm 18.1° 997.7 hPa 7.6 m/s 20.4 mm 16.4° 1000.4 hPa 8.3 m/s 0.1 mm 15.5° 1000.5 hPa 9.1 m/s 0.0 mm 16.1° 1000.0 hPa 8.6 m/s
16:00 16.9° 1001.6 hPa 8.5 m/s 4.1 mm 18.7° 999.7 hPa 8.4 m/s 22.2 mm 16.5° 1001.5 hPa 7.1 m/s 3.2 mm 17.3° 1002.2 hPa 9.2 m/s 0.0 mm 16.2° 1001.7 hPa 7.6 m/s
19:00 16.2° 1003.3 hPa 6.6 m/s 1.8 mm 16.7° 1001.8 hPa 5.8 m/s 24.5 mm 16.1° 1002.4 hPa 5.9 m/s 1.1 mm 15.9° 1004.6 hPa 8.0 m/s 0.0 mm 15.3° 1003.5 hPa 5.8 m/s
22:00 15.0° 1005.8 hPa 5.3 m/s 0.0 mm 14.8° 1004.2 hPa 5.9 m/s 25.1 mm 14.4° 1004.9 hPa 5.3 m/s 0.1 mm 15.5° 1007.4 hPa 5.8 m/s 0.0 mm 12.9° 1005.8 hPa 6.3 m/s
 05:01     21:56    Daglengte: 16:55 Morgen
01:00 13.3° 1007.0 hPa 5.4 m/s 3.6 mm 11.8° 1005.9 hPa 5.8 m/s 25.2 mm 13.1° 1006.0 hPa 6.2 m/s 0.2 mm 14.2° 1008.8 hPa 5.1 m/s 0.0 mm 11.5° 1008.0 hPa 5.7 m/s
04:00 12.1° 1008.2 hPa 6.4 m/s 4.2 mm 9.9° 1007.5 hPa 5.8 m/s 25.2 mm 12.2° 1007.7 hPa 6.6 m/s 0.6 mm 13.2° 1009.9 hPa 4.3 m/s 0.0 mm 10.9° 1009.2 hPa 6.1 m/s
07:00 11.7° 1009.7 hPa 7.2 m/s 1.9 mm 10.2° 1009.0 hPa 5.8 m/s 25.2 mm 11.8° 1009.3 hPa 7.6 m/s 0.7 mm 12.8° 1011.2 hPa 5.0 m/s 0.0 mm 10.4° 1010.8 hPa 5.6 m/s
10:00 12.9° 1011.4 hPa 6.8 m/s 0.0 mm 13.4° 1010.8 hPa 5.5 m/s 25.2 mm 12.8° 1011.3 hPa 7.4 m/s 0.0 mm 13.1° 1012.6 hPa 5.5 m/s 0.0 mm 12.9° 1012.1 hPa 6.1 m/s
13:00 14.8° 1012.1 hPa 4.5 m/s 0.0 mm 15.2° 1011.4 hPa 4.9 m/s 25.2 mm 15.5° 1011.6 hPa 5.8 m/s 0.0 mm 14.2° 1013.9 hPa 4.2 m/s 0.0 mm 15.4° 1012.4 hPa 3.8 m/s
16:00 15.5° 1012.0 hPa 5.2 m/s 0.0 mm 16.8° 1011.2 hPa 5.3 m/s 25.2 mm 16.7° 1011.6 hPa 5.7 m/s 0.0 mm 15.1° 1014.4 hPa 3.9 m/s 0.0 mm 15.8° 1012.4 hPa 5.6 m/s
19:00 15.2° 1012.3 hPa 5.9 m/s 0.0 mm 16.3° 1011.3 hPa 6.8 m/s 25.3 mm 15.5° 1012.0 hPa 6.0 m/s 0.0 mm 15.2° 1014.8 hPa 3.8 m/s 0.0 mm 13.6° 1012.6 hPa 6.5 m/s
22:00 14.0° 1011.1 hPa 6.9 m/s 3.7 mm 14.6° 1011.1 hPa 5.4 m/s 25.3 mm 14.2° 1011.7 hPa 6.3 m/s 0.0 mm 13.4° 1011.8 hPa 7.8 m/s
 05:01     21:56    Daglengte: 16:55 Dinsdag 28 Jun
01:00 14.1° 1009.5 hPa 9.1 m/s 9.2 mm 14.3° 1009.7 hPa 4.4 m/s 25.3 mm 14.1° 1009.9 hPa 9.0 m/s 0.3 mm 13.8° 1009.8 hPa 8.5 m/s
04:00 14.5° 1007.4 hPa 10.7 m/s 9.0 mm 14.5° 1007.5 hPa 6.5 m/s 25.5 mm 14.3° 1008.2 hPa 11.4 m/s 0.4 mm 13.3° 1008.2 hPa 8.8 m/s
07:00 14.5° 1006.7 hPa 11.4 m/s 7.3 mm 14.6° 1005.7 hPa 8.1 m/s 27.2 mm 14.4° 1006.9 hPa 12.3 m/s 0.8 mm 13.5° 1006.3 hPa 10.2 m/s
10:00 15.0° 1006.1 hPa 10.7 m/s 10.8 mm 15.7° 1004.9 hPa 8.5 m/s 29.4 mm 14.8° 1006.4 hPa 11.2 m/s 1.6 mm 13.7° 1004.2 hPa 10.5 m/s
13:00 17.4° 1005.2 hPa 8.2 m/s 8.6 mm 19.2° 1003.7 hPa 8.0 m/s 30.4 mm 17.0° 1005.6 hPa 8.2 m/s 2.7 mm 17.2° 1003.4 hPa 8.4 m/s
16:00 17.7° 1005.2 hPa 9.2 m/s 0.0 mm 19.8° 1003.3 hPa 8.1 m/s 30.6 mm 17.1° 1005.7 hPa 9.4 m/s 0.0 mm 16.8° 1003.2 hPa 8.9 m/s
19:00 17.2° 1005.4 hPa 6.0 m/s 0.0 mm 17.3° 1003.6 hPa 7.4 m/s 30.6 mm 17.1° 1005.9 hPa 5.7 m/s 0.0 mm 15.8° 1003.6 hPa 7.2 m/s
22:00 15.3° 1006.5 hPa 5.3 m/s 0.0 mm 15.8° 1004.7 hPa 5.6 m/s 30.6 mm 15.2° 1007.0 hPa 5.2 m/s 0.0 mm 13.3° 1004.7 hPa 6.2 m/s
 05:02     21:55    Daglengte: 16:53 Woensdag 29 Jun
01:00 14.3° 1006.8 hPa 3.6 m/s 0.0 mm 14.4° 1004.8 hPa 3.7 m/s 30.8 mm 14.2° 1007.3 hPa 3.6 m/s 0.0 mm 13.1° 1004.2 hPa 5.2 m/s
04:00 12.6° 1004.7 hPa 2.9 m/s 23.3 mm 12.6° 1004.7 hPa 2.9 m/s 23.3 mm
07:00 12.9° 1006.2 hPa 1.9 m/s 23.3 mm 12.9° 1006.2 hPa 1.9 m/s 23.3 mm
10:00 14.9° 1007.2 hPa 1.4 m/s 23.3 mm 14.9° 1007.2 hPa 1.4 m/s 23.3 mm
13:00 15.6° 1007.2 hPa 3.0 m/s 23.5 mm 15.6° 1007.2 hPa 3.0 m/s 23.5 mm
16:00 15.1° 1006.9 hPa 4.6 m/s 24.2 mm 15.1° 1006.9 hPa 4.6 m/s 24.2 mm
19:00 13.9° 1007.1 hPa 4.0 m/s 26.5 mm 13.9° 1007.1 hPa 4.0 m/s 26.5 mm
22:00 12.5° 1008.1 hPa 1.9 m/s 28.1 mm 12.5° 1008.1 hPa 1.9 m/s 28.1 mm
 05:03     21:55    Daglengte: 16:52 Donderdag 30 Jun
01:00 12.2° 1008.6 hPa 2.5 m/s 28.2 mm 12.2° 1008.6 hPa 2.5 m/s 28.2 mm
04:00 12.0° 1009.0 hPa 2.8 m/s 28.2 mm 12.0° 1009.0 hPa 2.8 m/s 28.2 mm
07:00 11.8° 1010.7 hPa 2.5 m/s 28.2 mm 11.8° 1010.7 hPa 2.5 m/s 28.2 mm
10:00 14.4° 1011.0 hPa 1.6 m/s 28.3 mm 14.4° 1011.0 hPa 1.6 m/s 28.3 mm
13:00 14.6° 1011.3 hPa 3.5 m/s 28.6 mm 14.6° 1011.3 hPa 3.5 m/s 28.6 mm
16:00 14.7° 1011.3 hPa 3.1 m/s 29.3 mm 14.7° 1011.3 hPa 3.1 m/s 29.3 mm
19:00 15.9° 1011.1 hPa 3.1 m/s 29.6 mm 15.9° 1011.1 hPa 3.1 m/s 29.6 mm
22:00 13.2° 1012.1 hPa 1.7 m/s 29.8 mm 13.2° 1012.1 hPa 1.7 m/s 29.8 mm
 05:03     21:55    Daglengte: 16:52 Vrijdag 01 Jul
01:00 11.8° 1012.2 hPa 3.8 m/s 29.8 mm 11.8° 1012.2 hPa 3.8 m/s 29.8 mm
04:00 11.0° 1012.4 hPa 4.6 m/s 29.8 mm 11.0° 1012.4 hPa 4.6 m/s 29.8 mm
07:00 11.2° 1012.6 hPa 4.5 m/s 29.8 mm 11.2° 1012.6 hPa 4.5 m/s 29.8 mm
10:00 13.8° 1012.4 hPa 4.6 m/s 29.8 mm 13.8° 1012.4 hPa 4.6 m/s 29.8 mm
13:00 16.2° 1011.5 hPa 3.1 m/s 30.0 mm 16.2° 1011.5 hPa 3.1 m/s 30.0 mm
16:00 14.4° 1011.6 hPa 3.0 m/s 30.4 mm 14.4° 1011.6 hPa 3.0 m/s 30.4 mm
19:00 15.5° 1010.6 hPa 4.5 m/s 31.0 mm 15.5° 1010.6 hPa 4.5 m/s 31.0 mm
22:00 13.8° 1010.7 hPa 4.2 m/s 31.0 mm 13.8° 1010.7 hPa 4.2 m/s 31.0 mm
 05:04     21:54    Daglengte: 16:50 Zaterdag 02 Jul
01:00 11.9° 1011.0 hPa 4.2 m/s 31.0 mm 11.9° 1011.0 hPa 4.2 m/s 31.0 mm
04:00 12.8° 1010.9 hPa 4.9 m/s 31.0 mm 12.8° 1010.9 hPa 4.9 m/s 31.0 mm
07:00 12.8° 1011.3 hPa 5.0 m/s 31.0 mm 12.8° 1011.3 hPa 5.0 m/s 31.0 mm
10:00 14.4° 1012.3 hPa 5.3 m/s 31.0 mm 14.4° 1012.3 hPa 5.3 m/s 31.0 mm
13:00 15.8° 1013.2 hPa 4.4 m/s 31.1 mm 15.8° 1013.2 hPa 4.4 m/s 31.1 mm
16:00 16.3° 1013.5 hPa 3.5 m/s 31.5 mm 16.3° 1013.5 hPa 3.5 m/s 31.5 mm
19:00 15.4° 1014.5 hPa 5.3 m/s 33.6 mm 15.4° 1014.5 hPa 5.3 m/s 33.6 mm
22:00 12.9° 1017.2 hPa 4.6 m/s 34.4 mm 12.9° 1017.2 hPa 4.6 m/s 34.4 mm
 05:05     21:54    Daglengte: 16:49 Zondag 03 Jul
01:00 10.9° 1018.8 hPa 4.9 m/s 34.4 mm 10.9° 1018.8 hPa 4.9 m/s 34.4 mm
07:00 10.5° 1020.7 hPa 6.0 m/s 34.5 mm 10.5° 1020.7 hPa 6.0 m/s 34.5 mm
13:00 16.2° 1022.2 hPa 6.1 m/s 34.5 mm 16.2° 1022.2 hPa 6.1 m/s 34.5 mm
19:00 16.2° 1023.6 hPa 5.8 m/s 34.5 mm 16.2° 1023.6 hPa 5.8 m/s 34.5 mm
 05:06     21:53    Daglengte: 16:47 Maandag 04 Jul
01:00 11.3° 1026.6 hPa 4.9 m/s 34.6 mm 11.3° 1026.6 hPa 4.9 m/s 34.6 mm
07:00 13.0° 1027.2 hPa 5.0 m/s 34.6 mm 13.0° 1027.2 hPa 5.0 m/s 34.6 mm
13:00 17.8° 1027.7 hPa 4.3 m/s 34.7 mm 17.8° 1027.7 hPa 4.3 m/s 34.7 mm
19:00 18.1° 1027.4 hPa 3.5 m/s 34.8 mm 18.1° 1027.4 hPa 3.5 m/s 34.8 mm
 05:07     21:53    Daglengte: 16:46 Dinsdag 05 Jul
01:00 12.6° 1028.9 hPa 3.9 m/s 34.8 mm 12.6° 1028.9 hPa 3.9 m/s 34.8 mm
07:00 12.6° 1028.1 hPa 4.0 m/s 34.8 mm 12.6° 1028.1 hPa 4.0 m/s 34.8 mm
13:00 18.0° 1027.7 hPa 2.2 m/s 34.9 mm 18.0° 1027.7 hPa 2.2 m/s 34.9 mm
19:00 18.9° 1026.1 hPa 3.3 m/s 35.0 mm 18.9° 1026.1 hPa 3.3 m/s 35.0 mm
 05:08     21:52    Daglengte: 16:44 Woensdag 06 Jul
01:00 14.1° 1020.1 hPa 2.6 m/s 0.4 mm
07:00 13.5° 1019.3 hPa 2.5 m/s 0.4 mm
13:00 16.4° 1019.4 hPa 2.1 m/s 0.7 mm
19:00 16.6° 1018.9 hPa 2.6 m/s 0.4 mm
 05:09     21:52    Daglengte: 16:43 Donderdag 07 Jul
01:00 13.9° 1019.3 hPa 3.0 m/s 0.5 mm
07:00 13.7° 1019.1 hPa 3.0 m/s 0.2 mm
13:00 16.3° 1019.6 hPa 2.0 m/s 0.2 mm
19:00 16.6° 1018.9 hPa 2.3 m/s 0.5 mm
 05:10     21:51    Daglengte: 16:41 Vrijdag 08 Jul
01:00 13.6° 1019.2 hPa 2.8 m/s 0.4 mm
07:00 13.1° 1018.5 hPa 3.3 m/s 0.3 mm
13:00 16.0° 1018.4 hPa 2.9 m/s 0.4 mm
19:00 16.3° 1017.8 hPa 3.3 m/s 0.9 mm
 05:11     21:50    Daglengte: 16:39 Zaterdag 09 Jul
01:00 13.4° 1018.2 hPa 3.4 m/s 0.6 mm
07:00 13.1° 1017.1 hPa 3.3 m/s 0.5 mm
13:00 16.1° 1016.7 hPa 2.6 m/s 0.8 mm
19:00 16.1° 1016.1 hPa 3.1 m/s 1.4 mm
 05:12     21:49    Daglengte: 16:37 Zondag 10 Jul
01:00 13.4° 1017.0 hPa 3.4 m/s 0.6 mm
07:00 12.9° 1016.8 hPa 3.4 m/s 0.1 mm
13:00 15.9° 1017.4 hPa 2.8 m/s 0.4 mm
19:00 16.1° 1017.4 hPa 3.3 m/s 0.5 mm
 05:13     21:48    Daglengte: 16:35 Maandag 11 Jul
01:00 13.4° 1017.9 hPa 3.9 m/s 0.4 mm
FMI Hirlam - 7.5 km EWN WRFDA - 12 km DWD ICON - 7 km GFS - 25 km Basiskaart






























































Updatetijd (Europe/Amsterdam) Resolutie Lengte Stap
FMI Hirlam 01:45, 07:45, 13:45, 19:45 7.5 km 49h 1h
EWN WRFDA 22:30, 04:30, 10:30, 16:30 12 km 73h 1h
DWD ICON 23:45, 05:45, 11:45, 17:45 7 km 75h 1h
GFS 02:15, 08:15, 14:15, 20:15 25 km 237h 3h
30+ mm
25-30 mm
20-25 mm
15-20 mm
10-15 mm
6-10 mm
4-6 mm
2-4 mm
1-2 mm
0.5-1 mm
0.2-0.5 mm
0.1-0.2 mm
30+ mm
25-30 mm
20-25 mm
15-20 mm
10-15 mm
6-10 mm
4-6 mm
2-4 mm
1-2 mm
0.5-1 mm
0.2-0.5 mm
0.1-0.2 mm
Sneeuwval
Natte sneeuw
Hagel
Vorst
30+ mm
25-30 mm
20-25 mm
15-20 mm
10-15 mm
6-10 mm
4-6 mm
2-4 mm
1-2 mm
0.5-1 mm
0.2-0.5 mm
0.1-0.2 mm
Sneeuwval
Natte sneeuw
Hagel
Vorst
Onweer
50 mm
40 mm
30 mm
26 mm
22 mm
18 mm
14 mm
10 mm
9 mm
8 mm
7 mm
6 mm
5 mm
4.5 mm
4 mm
3.5 mm
3 mm
2.5 mm
2 mm
1.5 mm
1 mm
0.8 mm
0.6 mm
0.4 mm
0.2 mm
0.05 mm
35°
30°
25°
<